N459BE KPIE-K6S0

Flight info

Callsign N459BE
Flight time N/A
Altitude 43000
Route LLRGO1 LACEN AMORY OZR OTB HAKAT TYGER SYTHH KEEFF KUBLE NELKS
Aircraft GLF5/M-BDE3FGHIJ2LRUVWXY/S

Departure

Time 2026-05-08 18:37
Airport St. Petersburg Clearwater International Airport (KPIE)

Arrival

Time N/A
Airport Big Timber Airport (K6S0)
Time Latitude Longitude Altitude Speed Heading
2026-05-08 18:09 27.91828 -82.69280 13 ft 0 kts 170°
2026-05-08 18:28 27.91826 -82.69279 12 ft 1 kts 172°
2026-05-08 18:28 27.91802 -82.69257 12 ft 5 kts 120°
2026-05-08 18:29 27.91794 -82.69219 12 ft 4 kts 87°
2026-05-08 18:29 27.91796 -82.69202 12 ft 0 kts 80°
2026-05-08 18:29 27.91801 -82.69166 12 ft 10 kts 82°
2026-05-08 18:29 27.91776 -82.69127 12 ft 4 kts 171°
2026-05-08 18:30 27.91755 -82.69123 12 ft 2 kts 172°
2026-05-08 18:30 27.91703 -82.69115 12 ft 13 kts 171°
2026-05-08 18:30 27.91598 -82.69097 13 ft 14 kts 171°
2026-05-08 18:30 27.91502 -82.69082 13 ft 13 kts 171°
2026-05-08 18:31 27.91418 -82.69067 13 ft 11 kts 170°
2026-05-08 18:31 27.91336 -82.69054 13 ft 12 kts 171°
2026-05-08 18:31 27.91237 -82.69036 13 ft 15 kts 172°
2026-05-08 18:31 27.91116 -82.69016 13 ft 19 kts 171°
2026-05-08 18:32 27.90962 -82.68989 14 ft 24 kts 169°
2026-05-08 18:32 27.90797 -82.68959 14 ft 22 kts 170°
2026-05-08 18:32 27.90736 -82.68951 14 ft 21 kts 171°
2026-05-08 18:32 27.90684 -82.68941 14 ft 20 kts 172°
2026-05-08 18:33 27.90547 -82.68919 15 ft 18 kts 171°
2026-05-08 18:33 27.90424 -82.68896 15 ft 16 kts 172°
2026-05-08 18:33 27.90314 -82.68879 15 ft 14 kts 172°
2026-05-08 18:33 27.90217 -82.68864 15 ft 13 kts 174°
2026-05-08 18:34 27.90128 -82.68861 15 ft 11 kts 179°
2026-05-08 18:34 27.90116 -82.68803 15 ft 10 kts 45°
2026-05-08 18:34 27.90179 -82.68742 15 ft 15 kts 39°
2026-05-08 18:34 27.90304 -82.68627 15 ft 31 kts 39°
2026-05-08 18:35 27.90474 -82.68468 14 ft 31 kts 41°
2026-05-08 18:35 27.90636 -82.68317 13 ft 28 kts 39°
2026-05-08 18:35 27.90783 -82.68178 13 ft 26 kts 39°
2026-05-08 18:35 27.90931 -82.68062 12 ft 24 kts 38°
2026-05-08 18:36 27.91055 -82.67944 12 ft 22 kts 41°
2026-05-08 18:36 27.91172 -82.67834 12 ft 20 kts 39°
2026-05-08 18:36 27.91228 -82.67776 12 ft 0 kts 78°
2026-05-08 18:36 27.91224 -82.67769 12 ft 3 kts 136°
2026-05-08 18:37 27.91196 -82.67788 12 ft 8 kts 221°
2026-05-08 18:37 27.90975 -82.68002 13 ft 85 kts 219°
2026-05-08 18:37 27.90303 -82.68630 86 ft 155 kts 220°
2026-05-08 18:37 27.89478 -82.69396 928 ft 160 kts 220°
2026-05-08 18:38 27.88540 -82.70284 1485 ft 203 kts 220°
2026-05-08 18:38 27.87390 -82.71373 1514 ft 214 kts 220°
2026-05-08 18:38 27.86275 -82.72478 1531 ft 220 kts 236°
2026-05-08 18:38 27.86058 -82.74146 2642 ft 217 kts 291°
2026-05-08 18:39 27.86913 -82.75328 3916 ft 207 kts 329°
2026-05-08 18:39 27.88457 -82.75721 4136 ft 257 kts
2026-05-08 18:39 27.90248 -82.75065 4871 ft 278 kts 20°
2026-05-08 18:39 27.91994 -82.74273 6170 ft 276 kts 20°
2026-05-08 18:40 27.93798 -82.73458 7176 ft 286 kts 21°
2026-05-08 18:40 27.95650 -82.72620 8214 ft 293 kts 20°
2026-05-08 18:40 27.97561 -82.71755 9239 ft 300 kts 20°
2026-05-08 18:40 27.99518 -82.70880 10241 ft 308 kts 18°
2026-05-08 18:41 28.01732 -82.70280 10282 ft 348 kts
2026-05-08 18:41 28.04220 -82.70234 10813 ft 368 kts 355°
2026-05-08 18:41 28.06749 -82.70420 11966 ft 368 kts 352°
2026-05-08 18:41 28.09311 -82.70735 12939 ft 374 kts 350°
2026-05-08 18:42 28.11964 -82.70892 13966 ft 381 kts 357°
2026-05-08 18:42 28.14593 -82.70853 14993 ft 386 kts 356°
2026-05-08 18:42 28.17279 -82.70827 15960 ft 392 kts 356°
2026-05-08 18:42 28.20017 -82.70808 17033 ft 397 kts 355°
2026-05-08 18:43 28.22802 -82.70792 17923 ft 404 kts 355°
2026-05-08 18:43 28.25612 -82.70778 18962 ft 408 kts 354°
2026-05-08 18:43 28.28363 -82.71317 19822 ft 401 kts 333°
2026-05-08 18:43 28.30890 -82.72667 20908 ft 400 kts 327°
2026-05-08 18:44 28.33376 -82.74080 21873 ft 405 kts 327°
2026-05-08 18:44 28.35912 -82.75532 22750 ft 412 kts 327°
2026-05-08 18:44 28.38492 -82.77010 23746 ft 416 kts 327°
2026-05-08 18:44 28.41127 -82.78355 24658 ft 428 kts 336°
2026-05-08 18:45 28.44108 -82.78975 25492 ft 442 kts 345°
2026-05-08 18:45 28.47160 -82.79457 26417 ft 445 kts 345°
2026-05-08 18:45 28.50248 -82.79958 27130 ft 452 kts 345°
2026-05-08 18:45 28.53378 -82.80466 27954 ft 456 kts 344°
2026-05-08 18:46 28.56543 -82.80984 28575 ft 464 kts 344°
2026-05-08 18:46 28.59730 -82.81540 29358 ft 466 kts 343°
2026-05-08 18:46 28.62941 -82.82120 30038 ft 471 kts 343°
2026-05-08 18:46 28.66208 -82.82711 30664 ft 476 kts 343°
2026-05-08 18:47 28.69470 -82.83297 31629 ft 473 kts 343°
2026-05-08 18:47 28.72688 -82.83877 32547 ft 470 kts 343°
2026-05-08 18:47 28.75905 -82.84458 33475 ft 467 kts 343°
2026-05-08 18:47 28.79104 -82.85035 34570 ft 461 kts 343°
2026-05-08 18:48 28.82215 -82.85596 35786 ft 451 kts 342°
2026-05-08 18:48 28.85311 -82.86159 36584 ft 450 kts 342°
2026-05-08 18:48 28.88385 -82.86715 37509 ft 445 kts 341°
2026-05-08 18:48 28.91461 -82.87273 38281 ft 443 kts 341°
2026-05-08 18:49 28.94511 -82.87825 39202 ft 438 kts 341°
2026-05-08 18:49 28.97571 -82.88385 39689 ft 441 kts 341°
2026-05-08 18:49 29.00634 -82.88939 40663 ft 436 kts 341°
2026-05-08 18:49 29.03658 -82.89489 41249 ft 437 kts 340°
2026-05-08 18:50 29.06638 -82.90031 41959 ft 435 kts 341°
2026-05-08 18:50 29.09656 -82.90578 42743 ft 431 kts 340°
2026-05-08 18:50 29.12641 -82.91124 42998 ft 432 kts 340°
2026-05-08 18:50 29.14655 -82.91492 42965 ft 436 kts 340°
2026-05-08 18:51 29.21621 -82.93238 43007 ft 430 kts 325°
2026-05-08 18:51 29.24056 -82.95100 42972 ft 412 kts 309°
2026-05-08 18:51 29.25886 -82.97557 43040 ft 402 kts 302°
2026-05-08 18:52 29.29452 -83.02468 42954 ft 400 kts 303°
2026-05-08 18:52 29.33074 -83.07295 42977 ft 401 kts 304°
2026-05-08 18:53 29.36726 -83.12136 42989 ft 402 kts 304°
2026-05-08 18:53 29.40356 -83.16952 42989 ft 400 kts 304°
2026-05-08 18:54 29.43991 -83.21781 42980 ft 400 kts 304°
2026-05-08 18:54 29.47627 -83.26617 42980 ft 399 kts 304°
2026-05-08 18:55 29.53047 -83.33836 42980 ft 400 kts 303°
2026-05-08 18:56 29.56707 -83.38719 42974 ft 400 kts 303°
2026-05-08 18:56 29.60344 -83.43575 42967 ft 400 kts 304°
2026-05-08 18:57 29.63953 -83.48401 42973 ft 398 kts 303°
2026-05-08 18:57 29.67587 -83.53265 42966 ft 400 kts 303°
2026-05-08 18:58 29.71191 -83.58096 42970 ft 400 kts 304°
2026-05-08 18:58 29.74804 -83.62944 42978 ft 398 kts 303°
2026-05-08 18:59 29.78430 -83.67815 42990 ft 398 kts 303°
2026-05-08 18:59 29.82022 -83.72646 42986 ft 399 kts 303°
2026-05-08 19:00 29.85022 -83.76687 42972 ft 397 kts 303°
2026-05-08 19:00 29.89192 -83.82309 42975 ft 396 kts 303°
2026-05-08 19:01 29.92769 -83.87135 42965 ft 398 kts 303°
2026-05-08 19:01 29.96342 -83.91966 42971 ft 396 kts 302°
2026-05-08 19:02 29.99924 -83.96814 42968 ft 396 kts 302°
2026-05-08 19:02 30.03504 -84.01664 42966 ft 395 kts 303°
2026-05-08 19:03 30.07045 -84.06471 42959 ft 393 kts 302°
2026-05-08 19:03 30.10605 -84.11304 42966 ft 393 kts 302°
2026-05-08 19:04 30.14172 -84.16156 42959 ft 396 kts 302°
2026-05-08 19:04 30.17737 -84.21009 42977 ft 395 kts 302°
2026-05-08 19:05 30.21270 -84.25826 42983 ft 392 kts 302°
2026-05-08 19:05 30.24808 -84.30656 42985 ft 393 kts 302°
2026-05-08 19:06 30.28350 -84.35497 42988 ft 396 kts 302°
2026-05-08 19:06 30.31896 -84.40345 42991 ft 393 kts 302°
2026-05-08 19:07 30.35431 -84.45192 42984 ft 394 kts 302°
2026-05-08 19:07 30.38973 -84.50047 42987 ft 395 kts 302°
2026-05-08 19:08 30.42516 -84.54914 42978 ft 393 kts 302°
2026-05-08 19:08 30.46031 -84.59744 42983 ft 393 kts 302°
2026-05-08 19:09 30.49545 -84.64586 42955 ft 393 kts 302°
2026-05-08 19:09 30.53058 -84.69428 42992 ft 391 kts 302°
2026-05-08 19:10 30.56590 -84.74300 42994 ft 393 kts 301°
2026-05-08 19:10 30.60113 -84.79172 43004 ft 393 kts 302°
2026-05-08 19:11 30.63621 -84.84023 42988 ft 391 kts 302°
2026-05-08 19:11 30.67099 -84.88841 42980 ft 392 kts 302°
2026-05-08 19:12 30.70610 -84.93713 42991 ft 393 kts 301°
2026-05-08 19:12 30.74127 -84.98595 42995 ft 395 kts 301°
2026-05-08 19:13 30.77626 -85.03459 42992 ft 393 kts 302°
2026-05-08 19:13 30.81117 -85.08318 42990 ft 392 kts 301°
2026-05-08 19:14 30.84638 -85.13229 42986 ft 391 kts 301°
2026-05-08 19:14 30.88113 -85.18077 42997 ft 392 kts 301°
2026-05-08 19:15 30.91619 -85.22978 42992 ft 394 kts 301°
2026-05-08 19:15 30.95143 -85.27908 42979 ft 393 kts 301°
2026-05-08 19:16 30.98634 -85.32797 42987 ft 394 kts 301°
2026-05-08 19:16 31.02106 -85.37666 42987 ft 390 kts 301°
2026-05-08 19:17 31.05587 -85.42555 42994 ft 393 kts 301°
2026-05-08 19:17 31.09098 -85.47493 42995 ft 394 kts 301°
2026-05-08 19:18 31.12005 -85.51588 43000 ft 391 kts 301°
2026-05-08 19:18 31.16051 -85.57290 42996 ft 391 kts 301°
2026-05-08 19:19 31.19514 -85.62176 42996 ft 393 kts 300°
2026-05-08 19:19 31.23023 -85.67140 43024 ft 393 kts 300°
2026-05-08 19:20 31.26486 -85.72034 43021 ft 390 kts 301°
2026-05-08 19:20 31.30604 -85.76324 43008 ft 401 kts 308°
2026-05-08 19:21 31.34874 -85.80558 43017 ft 401 kts 309°
2026-05-08 19:21 31.39144 -85.84810 43013 ft 403 kts 308°
2026-05-08 19:22 31.43418 -85.89075 43021 ft 400 kts 309°
2026-05-08 19:22 31.47617 -85.93266 43010 ft 398 kts 308°
2026-05-08 19:23 31.51855 -85.97508 43006 ft 400 kts 308°
2026-05-08 19:23 31.56079 -86.01738 43010 ft 401 kts 309°
2026-05-08 19:24 31.60316 -86.05984 42998 ft 402 kts 308°
2026-05-08 19:24 31.64590 -86.10273 43006 ft 402 kts 308°
2026-05-08 19:25 31.68813 -86.14518 43017 ft 396 kts 308°
2026-05-08 19:25 31.72993 -86.18725 43002 ft 398 kts 308°
2026-05-08 19:26 31.77218 -86.22980 42998 ft 399 kts 308°
2026-05-08 19:26 31.81417 -86.27220 43005 ft 397 kts 309°
2026-05-08 19:27 31.84927 -86.30760 43014 ft 396 kts 308°
2026-05-08 19:27 31.89780 -86.35670 42997 ft 397 kts 308°
2026-05-08 19:28 31.93979 -86.39921 43005 ft 396 kts 308°
2026-05-08 19:28 31.98148 -86.44146 42999 ft 397 kts 308°
2026-05-08 19:29 32.02322 -86.48386 43009 ft 394 kts 308°
2026-05-08 19:29 32.06492 -86.52623 42997 ft 394 kts 308°
2026-05-08 19:30 32.10656 -86.56863 43010 ft 396 kts 308°
2026-05-08 19:30 32.14849 -86.61134 43003 ft 396 kts 307°
2026-05-08 19:31 32.19010 -86.65379 43016 ft 393 kts 307°
2026-05-08 19:31 32.21086 -86.67501 43251 ft 397 kts 307°
2026-05-08 19:31 32.23171 -86.69627 43864 ft 394 kts 307°
2026-05-08 19:31 32.25263 -86.71769 44456 ft 391 kts 307°
2026-05-08 19:32 32.27289 -86.73837 45187 ft 386 kts 307°
2026-05-08 19:32 32.29321 -86.75918 45636 ft 386 kts 307°
2026-05-08 19:32 32.31377 -86.78027 45867 ft 388 kts 306°
2026-05-08 19:32 32.33390 -86.80090 46266 ft 387 kts 307°
2026-05-08 19:33 32.35421 -86.82172 46731 ft 385 kts 307°
2026-05-08 19:33 32.37435 -86.84238 47026 ft 382 kts 307°
2026-05-08 19:33 32.39448 -86.86310 47026 ft 384 kts 307°
2026-05-08 19:34 32.43456 -86.90424 47016 ft 384 kts 307°
2026-05-08 19:34 32.47494 -86.94584 47021 ft 383 kts 307°
2026-05-08 19:35 32.51491 -86.98700 47008 ft 381 kts 306°
2026-05-08 19:35 32.55477 -87.02812 47008 ft 382 kts 306°
2026-05-08 19:36 32.59498 -87.06966 47005 ft 384 kts 307°
2026-05-08 19:36 32.63489 -87.11094 47005 ft 381 kts 307°
2026-05-08 19:37 32.67487 -87.15231 46994 ft 382 kts 306°
2026-05-08 19:37 32.71460 -87.19353 46998 ft 382 kts 305°
2026-05-08 19:38 32.74788 -87.22807 46985 ft 380 kts 306°
2026-05-08 19:38 32.79427 -87.27626 46990 ft 378 kts 306°
2026-05-08 19:39 32.83417 -87.31782 46988 ft 383 kts 306°
2026-05-08 19:39 32.87424 -87.35953 46981 ft 384 kts 306°
2026-05-08 19:40 32.91422 -87.40123 46995 ft 383 kts 305°
2026-05-08 19:40 32.95422 -87.44305 46993 ft 383 kts 306°
2026-05-08 19:41 32.99424 -87.48486 46986 ft 382 kts 305°
2026-05-08 19:41 33.03429 -87.52682 46975 ft 384 kts 306°
2026-05-08 19:42 33.06760 -87.56171 46980 ft 382 kts 306°
2026-05-08 19:42 33.11402 -87.61044 46995 ft 381 kts 306°
2026-05-08 19:43 33.14709 -87.64522 46977 ft 380 kts 306°
2026-05-08 19:43 33.19394 -87.69451 47019 ft 385 kts 306°
2026-05-08 19:44 33.23384 -87.73653 47000 ft 383 kts 305°
2026-05-08 19:44 33.27390 -87.77883 47013 ft 383 kts 306°
2026-05-08 19:45 33.31366 -87.82082 47002 ft 382 kts 305°
2026-05-08 19:45 33.35356 -87.86302 46978 ft 384 kts 306°
2026-05-08 19:46 33.39357 -87.90540 46987 ft 385 kts 306°
2026-05-08 19:46 33.45423 -87.96976 46980 ft 389 kts 306°
2026-05-08 19:47 33.49489 -88.01295 46968 ft 391 kts 306°
2026-05-08 19:47 33.53565 -88.05630 46986 ft 391 kts 305°
2026-05-08 19:48 33.57616 -88.09944 46970 ft 389 kts 305°
2026-05-08 19:48 33.61694 -88.14300 46982 ft 393 kts 306°
2026-05-08 19:49 33.65792 -88.18673 46956 ft 393 kts 306°
2026-05-08 19:49 33.69875 -88.23043 46982 ft 393 kts 306°
2026-05-08 19:50 33.73962 -88.27417 46970 ft 394 kts 306°
2026-05-08 19:50 33.78044 -88.31795 46959 ft 394 kts 306°
2026-05-08 19:51 33.82137 -88.36189 46941 ft 394 kts 306°
2026-05-08 19:51 33.86200 -88.40561 46971 ft 393 kts 306°
2026-05-08 19:52 33.90303 -88.44978 46949 ft 395 kts 306°
2026-05-08 19:52 33.94411 -88.49404 46956 ft 396 kts 306°
2026-05-08 19:53 33.98492 -88.53811 46956 ft 395 kts 306°
2026-05-08 19:53 34.02600 -88.58254 46955 ft 396 kts 306°
2026-05-08 19:54 34.06701 -88.62692 46966 ft 396 kts 306°
2026-05-08 19:54 34.10811 -88.67146 46989 ft 397 kts 306°
2026-05-08 19:55 34.14953 -88.71641 46966 ft 395 kts 306°
2026-05-08 19:55 34.19033 -88.76078 46977 ft 396 kts 306°
2026-05-08 19:56 34.23132 -88.80526 46997 ft 396 kts 307°
2026-05-08 19:56 34.27273 -88.84928 46981 ft 398 kts 307°
2026-05-08 19:57 34.31432 -88.89363 46978 ft 399 kts 306°
2026-05-08 19:57 34.35571 -88.93782 46972 ft 400 kts 306°
2026-05-08 19:58 34.39769 -88.98270 46966 ft 400 kts 307°
2026-05-08 19:58 34.43901 -89.02692 46972 ft 400 kts 307°
2026-05-08 19:59 34.48073 -89.07165 46941 ft 399 kts 307°
2026-05-08 19:59 34.52233 -89.11632 46944 ft 400 kts 307°
2026-05-08 20:00 34.56406 -89.16119 46944 ft 403 kts 307°
2026-05-08 20:00 34.60594 -89.20624 46951 ft 402 kts 307°
2026-05-08 20:01 34.64784 -89.25142 46940 ft 401 kts 307°
2026-05-08 20:01 34.68940 -89.29629 46934 ft 401 kts 307°
2026-05-08 20:02 34.73111 -89.34139 46953 ft 403 kts 307°
2026-05-08 20:02 34.77318 -89.38692 46930 ft 403 kts 307°
2026-05-08 20:03 34.81488 -89.43213 46933 ft 403 kts 307°
2026-05-08 20:03 34.85690 -89.47774 46938 ft 402 kts 307°
2026-05-08 20:04 34.89858 -89.52307 46946 ft 404 kts 307°
2026-05-08 20:04 34.94057 -89.56877 46943 ft 402 kts 307°
2026-05-08 20:05 34.97544 -89.60679 46947 ft 402 kts 307°
2026-05-08 20:05 35.01725 -89.65244 46955 ft 405 kts 307°
2026-05-08 20:06 35.06625 -89.70599 46962 ft 405 kts 307°
2026-05-08 20:06 35.10847 -89.75222 46947 ft 403 kts 307°
2026-05-08 20:07 35.14993 -89.79769 46955 ft 403 kts 307°
2026-05-08 20:07 35.19197 -89.84387 46940 ft 405 kts 307°
2026-05-08 20:08 35.22705 -89.88245 46945 ft 405 kts 307°
2026-05-08 20:08 35.27596 -89.93630 46946 ft 407 kts 307°
2026-05-08 20:09 35.31794 -89.98260 46953 ft 405 kts 307°
2026-05-08 20:09 35.35990 -90.02895 46941 ft 406 kts 307°
2026-05-08 20:10 35.40168 -90.07516 46925 ft 407 kts 307°
2026-05-08 20:10 35.44403 -90.12209 46923 ft 408 kts 308°
2026-05-08 20:11 35.47925 -90.16115 46939 ft 408 kts 307°
2026-05-08 20:11 35.52814 -90.21547 46915 ft 408 kts 307°
2026-05-08 20:12 35.57014 -90.26221 46922 ft 408 kts 307°
2026-05-08 20:12 35.61226 -90.30915 46905 ft 409 kts 307°
2026-05-08 20:13 35.64753 -90.34849 46919 ft 409 kts 307°
2026-05-08 20:13 35.69710 -90.40391 46916 ft 411 kts 307°
2026-05-08 20:14 35.73921 -90.45104 46896 ft 411 kts 307°
2026-05-08 20:14 35.78175 -90.49873 46920 ft 411 kts 307°
2026-05-08 20:15 35.81695 -90.53824 46918 ft 411 kts 308°
2026-05-08 20:15 35.86626 -90.59366 46919 ft 410 kts 308°
2026-05-08 20:16 35.90849 -90.64125 46905 ft 412 kts 308°
2026-05-08 20:16 35.94429 -90.68163 46931 ft 414 kts 308°
2026-05-08 20:17 35.99386 -90.73758 46924 ft 414 kts 308°
2026-05-08 20:17 36.03634 -90.78565 46912 ft 413 kts 307°
2026-05-08 20:18 36.07864 -90.83359 46940 ft 415 kts 308°
2026-05-08 20:18 36.12149 -90.88223 46919 ft 415 kts 307°
2026-05-08 20:19 36.16390 -90.93042 46906 ft 415 kts 308°
2026-05-08 20:19 36.20664 -90.97907 46914 ft 417 kts 308°
2026-05-08 20:20 36.24901 -91.02737 46920 ft 417 kts 308°
2026-05-08 20:20 36.29178 -91.07655 46904 ft 415 kts 307°
2026-05-08 20:21 36.33300 -91.12614 46897 ft 415 kts 307°
2026-05-08 20:21 36.37479 -91.17638 46898 ft 418 kts 307°
2026-05-08 20:22 36.41645 -91.22652 46869 ft 419 kts 307°
2026-05-08 20:22 36.45124 -91.26847 46873 ft 417 kts 307°
2026-05-08 20:23 36.50002 -91.32737 46887 ft 417 kts 307°
2026-05-08 20:23 36.54172 -91.37782 46875 ft 419 kts 307°
2026-05-08 20:24 36.58324 -91.42812 46869 ft 421 kts 307°
2026-05-08 20:24 36.62516 -91.47899 46868 ft 420 kts 307°
2026-05-08 20:25 36.66688 -91.52968 46870 ft 421 kts 307°
2026-05-08 20:25 36.70862 -91.58051 46872 ft 421 kts 307°
2026-05-08 20:26 36.75057 -91.63165 46865 ft 420 kts 307°
2026-05-08 20:26 36.79267 -91.68307 46882 ft 423 kts 307°
2026-05-08 20:27 36.83490 -91.73473 46898 ft 425 kts 307°
2026-05-08 20:27 36.87703 -91.78634 46912 ft 423 kts 307°
2026-05-08 20:28 36.91887 -91.83768 46905 ft 423 kts 307°
2026-05-08 20:28 36.96092 -91.88938 46904 ft 426 kts 307°
2026-05-08 20:29 37.00328 -91.94154 46897 ft 427 kts 308°
2026-05-08 20:29 37.04561 -91.99374 46893 ft 427 kts 307°
2026-05-08 20:30 37.08769 -92.04572 46885 ft 427 kts 307°
2026-05-08 20:30 37.12975 -92.09776 46866 ft 424 kts 307°
2026-05-08 20:31 37.17160 -92.14964 46882 ft 425 kts 307°
2026-05-08 20:31 37.21373 -92.20195 46869 ft 428 kts 308°
2026-05-08 20:32 37.25613 -92.25467 46870 ft 429 kts 308°
2026-05-08 20:32 37.29841 -92.30733 46881 ft 430 kts 308°
2026-05-08 20:33 37.34083 -92.36026 46875 ft 429 kts 308°
2026-05-08 20:33 37.38325 -92.41328 46868 ft 429 kts 308°
2026-05-08 20:34 37.42517 -92.46577 46855 ft 428 kts 308°
2026-05-08 20:35 37.48864 -92.54540 46856 ft 430 kts 308°
2026-05-08 20:35 37.53122 -92.59894 46846 ft 433 kts 308°
2026-05-08 20:36 37.57397 -92.65276 46879 ft 434 kts 308°
2026-05-08 20:36 37.61657 -92.70651 46871 ft 433 kts 308°
2026-05-08 20:37 37.65914 -92.76030 46869 ft 432 kts 308°
2026-05-08 20:37 37.70146 -92.81390 46876 ft 434 kts 308°